[[{"header":{"parameterUnit":"m.s-1","parameterCategory":1,"la1":30.2991,"la2":30.254,"lo1":-89.0895,"lo2":-89.0444,"dy":0.0017,"dx":0.0017,"nx":28,"ny":28,"refTime":"2023-09-18T03:00:00:Z","depth":0,"parameterNumber":2,"parameterNumberName":"U-component_of_WINDS"},"data":[0,0,0,0,0,0,0,0,0,0,0,0,0,0,0,0,0,0,0,0,0,0,0,0,0,0,0,0,0,0,0,0,0,0,0,0,0,0,0,0,0,0,0,0,0,0,0,0,0,0,0,0,0,0,0,0,0,0,0.4307,0.4308,0,0.4414,0.4416,0.4417,0.4474,0.4474,0.4474,0.4474,0.4588,0.4591,0.4594,0,0,0,0,0,0,0,0,0,0,0,0,0,0.4154,0.4157,0.4307,0.4308,0.431,0.4414,0.4416,0.4417,0.4474,0.4474,0.4474,0.4475,0.4587,0.459,0.4594,0,0,0,0,0,0,0,0,0,0,0,0,0,0.4237,0.4158,0.4307,0.4351,0.4356,0.4414,0.4416,0.4418,0.4474,0.4474,0.4474,0.4475,0.4586,0.459,0.4594,0.4618,0,0,0.4608,0.461,0,0,0,0,0,0,0,0,0.4232,0.4243,0.4343,0.4348,0.4353,0.4431,0.4404,0.4485,0.4474,0.4429,0.4474,0.4475,0.4536,0.4544,0.4564,0.4624,0.4629,0.4608,0.4611,0.4613,0.4614,0,0,0,0,0,0,0,0.4227,0.4238,0.435,0.4344,0.4351,0.4366,0.4378,0.4419,0.4481,0.4433,0.4438,0.4449,0.4539,0.456,0.4567,0.463,0.4608,0.4612,0.4615,0.4616,0.4715,0.4715,0,0,0,0,0,0,0.4213,0.4233,0.4346,0.4353,0.4292,0.4369,0.4382,0.4406,0.448,0.4492,0.4449,0.4452,0.4552,0.4562,0.4572,0.4604,0.4613,0.4617,0.4619,0.4715,0.4715,0.4715,0,0,0,0,0,0,0.421,0.4223,0.4342,0.4294,0.4311,0.4371,0.4398,0.4408,0.4429,0.4492,0.4504,0.4459,0.4553,0.4565,0.4606,0.4609,0.4619,0.4623,0.4715,0.4715,0.4715,0.4669,0,0,0,0,0,0,0.4205,0.4221,0.423,0.4294,0.4313,0.4373,0.4398,0.441,0.4436,0.444,0.4505,0.4515,0.4554,0.4599,0.461,0.4615,0.4626,0.4715,0.4715,0.4715,0.4671,0.4668,0.4665,0,0,0,0,0,0.4199,0.4214,0.423,0.4244,0.4325,0.4373,0.4384,0.4427,0.4436,0.4446,0.4487,0.4513,0.4607,0.4603,0.4616,0.4622,0.4715,0.4715,0.4715,0.4672,0.4668,0.4665,0,0,0,0,0,0,0.415,0.4223,0.4242,0.4278,0.4319,0.4383,0.4397,0.4422,0.4463,0.4465,0.4518,0.4532,0.4567,0.4599,0.4593,0.4649,0.4664,0.4666,0.4627,0.4624,0.4621,0.4612,0.463,0,0,0,0,0,0.4143,0.4175,0.4238,0.4263,0.4283,0.4336,0.4359,0.4388,0.4433,0.4451,0.4495,0.4539,0.4578,0.4603,0.4643,0.4676,0.4691,0.4687,0.4684,0.4681,0.4683,0.4702,0.4701,0.4714,0.4714,0.4714,0,0,0.413,0.4174,0.4191,0.4254,0.429,0.4323,0.435,0.4384,0.4409,0.4457,0.4497,0.4531,0.4583,0.462,0.4639,0.4648,0.4682,0.4681,0.4678,0.4682,0.4702,0.4701,0.47,0.4714,0.4714,0.4714,0,0,0.4122,0.4158,0.4183,0.4217,0.427,0.4305,0.4311,0.4372,0.4395,0.4436,0.4473,0.4504,0.4571,0.4606,0.4633,0.4638,0.4664,0.4649,0.4634,0.4653,0.4652,0.4651,0.4652,0.4652,0.4651,0.4651,0.4651,0,0.4098,0.4148,0.4192,0.4224,0.4251,0.4294,0.432,0.4352,0.4415,0.4433,0.4442,0.4526,0.4565,0.461,0.4611,0.4632,0.464,0.4642,0.4648,0.4648,0.4648,0.465,0.465,0.4648,0.4649,0.4649,0.4649,0,0.4117,0.4151,0.4165,0.4223,0.4252,0.428,0.433,0.4353,0.438,0.4415,0.4456,0.4504,0.4554,0.4567,0.4594,0.4616,0.462,0.4638,0.4654,0.4644,0.4646,0.4647,0.4645,0.4646,0.4647,0.4647,0,0,0.408,0.4162,0.4167,0.4194,0.4255,0.4283,0.4313,0.4361,0.438,0.4422,0.4449,0.4504,0.4521,0.4551,0.4583,0.4599,0.4599,0.4616,0.4618,0.461,0.4627,0.4612,0.4612,0.4617,0.4618,0.4618,0.4622,0,0.408,0.4136,0.4177,0.4217,0.4249,0.4291,0.4318,0.4358,0.4391,0.4424,0.4462,0.4499,0.4519,0.4537,0.4555,0.4595,0.4603,0.4596,0.4643,0.4645,0.4628,0.4614,0.4599,0.46,0.4623,0.4624,0.4624,0,0.4088,0.4127,0.417,0.4227,0.4242,0.4265,0.4312,0.4343,0.439,0.4413,0.4446,0.4479,0.4514,0.4526,0.4575,0.4569,0.4591,0.4614,0.4615,0.4621,0.4633,0.4619,0.4602,0.4602,0.4626,0.4626,0.4626,0,0.4056,0.412,0.4154,0.4176,0.4244,0.4259,0.4288,0.4336,0.4361,0.4403,0.442,0.4465,0.4489,0.4524,0.4568,0.4573,0.4612,0.4628,0.4632,0.4631,0.4638,0.4637,0.4624,0.4653,0.4653,0.4653,0.4653,0,0.4052,0.4076,0.4141,0.4161,0.419,0.4237,0.4265,0.4298,0.434,0.4368,0.4408,0.4434,0.449,0.4524,0.4558,0.4593,0.4604,0.4624,0.4633,0.462,0.4618,0.4635,0.4636,0.4653,0.4653,0.4653,0.4653,0,0.4021,0.4065,0.4105,0.4165,0.4181,0.42,0.4252,0.4274,0.4309,0.4345,0.4356,0.4412,0.4453,0.45,0.4557,0.458,0.4612,0.4626,0.4595,0.46,0.4602,0.46,0.4599,0.4601,0.4629,0.4628,0.4628,0,0.4015,0.4034,0.4097,0.4118,0.4146,0.418,0.4206,0.4253,0.4279,0.4334,0.435,0.4393,0.4431,0.4495,0.454,0.4584,0.4599,0.4595,0.4605,0.4592,0.4598,0.4596,0.4598,0.4592,0.4591,0.4591,0.4591,0,0.3999,0.402,0.4055,0.4098,0.4128,0.4164,0.4203,0.4218,0.4273,0.43,0.4342,0.4371,0.4428,0.4471,0.452,0.4552,0.458,0.4587,0.459,0.4577,0.4558,0.4568,0.4587,0.4587,0.4587,0.4587,0.4588,0.4588,0.398,0.3999,0.4046,0.4084,0.4118,0.4152,0.4176,0.4213,0.4248,0.4298,0.4324,0.4365,0.4413,0.4481,0.4512,0.4545,0.4555,0.4559,0.4561,0.4561,0.4557,0.4553,0.4554,0.4555,0.4555,0.4555,0.4555,0,0.3966,0.3998,0.4032,0.4084,0.4114,0.4137,0.4181,0.4205,0.424,0.4281,0.4316,0.4364,0.4406,0.4455,0.45,0.4517,0.4531,0.4527,0.4526,0.4533,0.4546,0.4538,0.4515,0.4515,0.4515,0.4515,0.4515,0.4515,0.3962,0.3995,0.4021,0.4072,0.4104,0.4144,0.4166,0.4199,0.4232,0.4283,0.4317,0.4348,0.4393,0.4441,0.4481,0.4494,0.4509,0.45,0.4518,0.4529,0.4532,0.4535,0.4528,0.4503,0.4503,0.4502,0.4502,0.4502]},{"header":{"parameterUnit":"m.s-1","parameterCategory":1,"la1":30.2991,"la2":30.254,"lo1":-89.0895,"lo2":-89.0444,"dy":0.0017,"dx":0.0017,"nx":28,"ny":28,"refTime":"2023-09-18T03:00:00:Z","depth":0,"parameterNumber":3,"parameterNumberName":"V-component_of_WINDS"},"data":[0,0,0,0,0,0,0,0,0,0,0,0,0,0,0,0,0,0,0,0,0,0,0,0,0,0,0,0,0,0,0,0,0,0,0,0,0,0,0,0,0,0,0,0,0,0,0,0,0,0,0,0,0,0,0,0,0,0,0.8788,0.8787,0,0.8691,0.869,0.8689,0.8546,0.8543,0.8541,0.8538,0.8442,0.8441,0.8441,0,0,0,0,0,0,0,0,0,0,0,0,0,0.8848,0.8848,0.8788,0.8786,0.8785,0.8691,0.869,0.8689,0.8546,0.8543,0.854,0.8537,0.8442,0.8441,0.8441,0,0,0,0,0,0,0,0,0,0,0,0,0,0.8794,0.8848,0.8788,0.8703,0.8694,0.8692,0.869,0.8688,0.8547,0.8543,0.8539,0.8536,0.8442,0.8441,0.8441,0.8515,0,0,0.844,0.844,0,0,0,0,0,0,0,0,0.8798,0.8792,0.8716,0.8709,0.8699,0.8627,0.8676,0.863,0.8548,0.8603,0.8538,0.8534,0.8506,0.85,0.8491,0.851,0.8506,0.844,0.844,0.844,0.844,0,0,0,0,0,0,0,0.8801,0.8796,0.8749,0.8716,0.8705,0.8669,0.8658,0.8667,0.8577,0.8598,0.8587,0.8578,0.8501,0.8491,0.8487,0.8505,0.844,0.844,0.8439,0.8439,0.8575,0.8579,0,0,0,0,0,0,0.8818,0.88,0.8753,0.8747,0.874,0.8671,0.8658,0.8654,0.8577,0.8561,0.8581,0.8571,0.8494,0.8488,0.8483,0.856,0.844,0.8439,0.8439,0.8571,0.8576,0.858,0,0,0,0,0,0,0.882,0.8815,0.8756,0.877,0.876,0.8674,0.8671,0.8654,0.8644,0.8564,0.8547,0.8588,0.8491,0.8484,0.8507,0.8555,0.8439,0.8439,0.8567,0.8573,0.8578,0.8718,0,0,0,0,0,0,0.8822,0.8816,0.8843,0.8772,0.876,0.8782,0.8674,0.8655,0.8644,0.863,0.8566,0.8551,0.8487,0.8508,0.8507,0.8553,0.8439,0.8562,0.857,0.8576,0.8709,0.8728,0.8744,0,0,0,0,0,0.8825,0.8888,0.8846,0.8841,0.8792,0.8785,0.8778,0.8702,0.8648,0.8674,0.8622,0.8553,0.8551,0.8512,0.8509,0.8556,0.8559,0.8567,0.8576,0.8701,0.8724,0.8744,0,0,0,0,0,0,0.8968,0.8877,0.8829,0.8871,0.8837,0.8761,0.8791,0.873,0.8711,0.8699,0.8607,0.8593,0.8627,0.8594,0.8552,0.8621,0.8544,0.8553,0.864,0.8662,0.8679,0.8685,0.8438,0,0,0,0,0,0.9005,0.9007,0.8927,0.8972,0.8957,0.8878,0.8872,0.8816,0.8777,0.8762,0.8712,0.8677,0.8667,0.8664,0.8651,0.8705,0.8686,0.8735,0.8753,0.8768,0.8775,0.8797,0.8816,0.8608,0.8608,0.8608,0,0,0.908,0.9031,0.9038,0.8999,0.8966,0.8969,0.8866,0.8875,0.8876,0.8764,0.878,0.8743,0.8698,0.8735,0.8749,0.8709,0.8829,0.8779,0.8792,0.879,0.8807,0.8827,0.8845,0.8614,0.8613,0.8612,0,0,0.9218,0.9183,0.9214,0.9182,0.9133,0.908,0.9088,0.9021,0.8991,0.9007,0.8921,0.8922,0.8909,0.8879,0.8862,0.8988,0.8922,0.8987,0.9079,0.9101,0.9117,0.9131,0.9171,0.9188,0.8995,0.8996,0.8996,0,0.9318,0.9319,0.9238,0.925,0.9235,0.9134,0.9163,0.9137,0.9088,0.9079,0.9035,0.9014,0.8977,0.9003,0.9034,0.9026,0.9029,0.8992,0.9121,0.9134,0.9146,0.9184,0.92,0.9004,0.9003,0.9002,0.9001,0,0.9442,0.9444,0.9475,0.9427,0.9416,0.9438,0.936,0.9358,0.9304,0.9256,0.9272,0.9223,0.9197,0.9201,0.9149,0.922,0.9195,0.9138,0.9058,0.9175,0.9208,0.9223,0.9015,0.9012,0.901,0.9008,0,0,0.9664,0.9571,0.9584,0.9559,0.9498,0.9497,0.9515,0.9488,0.9487,0.9457,0.9466,0.9457,0.9403,0.9384,0.9328,0.9348,0.9446,0.9287,0.9285,0.9315,0.9515,0.9555,0.9574,0.9404,0.9406,0.9408,0.9517,0,0.9786,0.9808,0.9736,0.9776,0.9775,0.9679,0.9693,0.9657,0.9612,0.9605,0.9556,0.9549,0.948,0.9467,0.9483,0.9431,0.9484,0.9422,0.9409,0.9409,0.9418,0.9592,0.9635,0.974,0.9531,0.9533,0.9535,0,0.9931,0.9905,0.9946,0.9879,0.9876,0.989,0.9858,0.9854,0.981,0.9776,0.9754,0.9689,0.97,0.9627,0.9638,0.9598,0.9589,0.9562,0.9564,0.9557,0.9476,0.9584,0.9773,0.9787,0.9555,0.9554,0.9552,0,1.0083,1.006,1.008,1.0063,0.9987,0.9999,0.9968,0.992,0.9908,0.9882,0.9872,0.9849,0.9835,0.9817,0.9746,0.97,0.9765,0.9687,0.9734,0.9736,0.9748,0.9747,0.9933,0.9751,0.9751,0.975,0.975,0,1.0224,1.0251,1.0147,1.0159,1.0186,1.0103,1.0132,1.0091,1.005,1.0051,0.9969,0.9972,0.988,0.9873,0.9819,0.9834,0.983,0.98,0.9784,0.9805,0.9808,0.9794,0.9783,0.9754,0.9754,0.9753,0.9752,0,1.0397,1.0329,1.0343,1.027,1.0253,1.0276,1.0212,1.022,1.017,1.0173,1.0169,1.0091,1.0078,1.0007,0.9978,0.9941,0.9974,0.9946,0.9988,0.9977,1.0026,1.0021,1.0205,1.0223,1.0035,1.0037,1.0039,0,1.0488,1.0507,1.0436,1.043,1.0403,1.0396,1.0383,1.0303,1.0293,1.0243,1.0256,1.0236,1.0215,1.0199,1.0139,1.0115,1.0083,1.015,1.0079,1.0098,1.0078,1.0076,1.0075,1.0163,1.0166,1.0168,1.017,0,1.0657,1.0622,1.0606,1.0579,1.0566,1.054,1.051,1.051,1.0421,1.0414,1.0399,1.0383,1.0352,1.0332,1.0299,1.0266,1.0202,1.0193,1.0201,1.022,1.0242,1.0226,1.0024,1.0188,1.0186,1.0185,1.0184,1.0183,1.0788,1.0798,1.0749,1.0734,1.0703,1.0676,1.0678,1.0629,1.0615,1.0583,1.0537,1.0528,1.0482,1.0429,1.0402,1.0392,1.0356,1.037,1.0373,1.0376,1.0385,1.0248,1.0387,1.0386,1.0385,1.0385,1.0384,0,1.0948,1.0912,1.0899,1.0858,1.0846,1.0789,1.0752,1.0745,1.0737,1.07,1.0681,1.0663,1.0643,1.0582,1.0555,1.0559,1.0529,1.0554,1.055,1.0543,1.0421,1.0414,1.0579,1.0579,1.0579,1.0579,1.0579,1.0579,1.1029,1.1042,1.1002,1.0998,1.0962,1.0951,1.0935,1.0909,1.0878,1.0861,1.0844,1.0804,1.0757,1.0726,1.0704,1.0686,1.0678,1.0713,1.0685,1.0571,1.0552,1.0534,1.0527,1.0713,1.0713,1.0807,1.0808,1.0809]}]]